Observations for Trim Market St
| Time | AQI | Temp °C | Hum % | Pres Pa | CO μg/m³ | H₂S μg/m³ | NO μg/m³ | NO₂ μg/m³ | O₃ μg/m³ | SO₂ μg/m³ | PM1 μg/m³ | PM2.5 μg/m³ | PM10 μg/m³ |
|---|---|---|---|---|---|---|---|---|---|---|---|---|---|
| Sunday 12 July 2026 | |||||||||||||
| 14:58 | 1 | 34.6 | 32 | 66,307 | 0 | 0 | 0 | 0 | 33.1 | 0 | 2.14 | 5.39 | 5.93 |
| 14:57 | 1 | 34.6 | 32 | 66,309 | 0 | 0 | 0 | 0 | 42.68 | 0 | 3.56 | 5.93 | 6.67 |
| 14:56 | 1 | 34.6 | 32 | 66,309 | 0 | 0 | 0 | 0 | 38.45 | 0 | 2.14 | 5.4 | 5.94 |
| 14:55 | 1 | 34.6 | 32 | 66,315 | 0 | 0 | 0 | 0 | 38.03 | 0 | 2.14 | 5.94 | 6.53 |
| 14:54 | 1 | 34.6 | 32 | 66,323 | 0 | 0 | 0 | 0 | 30.61 | 0 | 2.85 | 5.94 | 6.67 |
| 14:53 | 1 | 34.6 | 32 | 66,333 | 0 | 0 | 0 | 0.51 | 35.68 | 0 | 2.85 | 5.39 | 5.93 |
| 14:52 | 1 | 34.6 | 32 | 66,343 | 0 | 0 | 0 | 0 | 31.72 | 0 | 2.14 | 5.39 | 5.93 |
| 14:51 | 1 | 34.6 | 32 | 66,362 | 0 | 0 | 0 | 1.32 | 37.41 | 0 | 3.56 | 7.02 | 7.52 |
| 14:48 | 1 | 34.6 | 31 | 66,325 | 0 | 0 | 0 | 0 | 33.7 | 0 | 2.85 | 6.5 | 8.38 |
| 14:46 | 1 | 34.6 | 32 | 66,351 | 0 | 0 | 0 | 0 | 33.9 | 0 | 1.43 | 5.94 | 6.53 |
| 14:43 | 1 | 34.6 | 32 | 66,347 | 0 | 0 | 0 | 0 | 25.52 | 0 | 2.14 | 6.46 | 6.67 |
| 14:37 | 1 | 34.5 | 32 | 66,347 | 0 | 0 | 0 | 1.22 | 42.83 | 0 | 3.56 | 7 | 8.38 |
| 14:33 | 1 | 34.5 | 32 | 66,382 | 0 | 0 | 0 | 0 | 42.27 | 0 | 2.85 | 7.03 | 10.09 |
| 14:32 | 1 | 34.5 | 32 | 66,380 | 0 | 0 | 0 | 0 | 35.14 | 0 | 3.56 | 6.49 | 7.52 |
| 14:31 | 1 | 34.6 | 32 | 66,376 | 0 | 0 | 0 | 0 | 37.61 | 0 | 3.56 | 7.03 | 8.38 |
| 14:30 | 1 | 34.6 | 32 | 66,349 | 0 | 0 | 0 | 0 | 37.31 | 0 | 3.56 | 7.02 | 8.38 |
| 14:29 | 1 | 34.6 | 32 | 66,366 | 0 | 0 | 0 | 0 | 32.64 | 0 | 4.28 | 7.03 | 7.52 |
| 14:28 | 1 | 34.6 | 32 | 66,362 | 0 | 0 | 0 | 0 | 41.73 | 0 | 4.28 | 7.57 | 8.38 |
| 14:26 | 1 | 34.7 | 31 | 66,386 | 0 | 0 | 0 | 0.15 | 44.24 | 0 | 4.28 | 7.58 | 8.38 |
| 14:25 | 1 | 34.7 | 31 | 66,386 | 0 | 0 | 0 | 0 | 30.41 | 0 | 4.28 | 7.58 | 8.38 |